[[{"header":{"parameterUnit":"m.s-1","parameterCategory":1,"la1":30.2991,"la2":30.254,"lo1":-89.0895,"lo2":-89.0444,"dy":0.0017,"dx":0.0017,"nx":28,"ny":28,"refTime":"2023-10-24T09:00:00:Z","depth":0,"parameterNumber":2,"parameterNumberName":"U-component_of_WINDS"},"data":[0,0,0,0,0,0,0,0,0,0,0,0,0,0,0,0,0,0,0,0,0,0,0,0,0,0,0,0,0,0,0,0,0,0,0,0,0,0,0,0,0,0,0,0,0,0,0,0,0,0,0,0,0,0,0,0,0,0,-6.3646,-6.3647,0,-6.3699,-6.37,-6.3701,-6.3554,-6.355,-6.3545,-6.3541,-6.3595,-6.36,-6.3606,0,0,0,0,0,0,0,0,0,0,0,0,0,-6.3418,-6.3423,-6.3646,-6.3647,-6.3647,-6.3699,-6.37,-6.3701,-6.3555,-6.3549,-6.3544,-6.3539,-6.3593,-6.36,-6.3606,0,0,0,0,0,0,0,0,0,0,0,0,0,-6.3499,-6.3424,-6.3646,-6.3581,-6.3576,-6.3699,-6.37,-6.3701,-6.3556,-6.3549,-6.3543,-6.3536,-6.3591,-6.3599,-6.3607,-6.3796,0,0,-6.3633,-6.3637,0,0,0,0,0,0,0,0,-6.3494,-6.3507,-6.359,-6.3586,-6.358,-6.3613,-6.3639,-6.3733,-6.3558,-6.3564,-6.3541,-6.3533,-6.3606,-6.3613,-6.3638,-6.3798,-6.3801,-6.3634,-6.3639,-6.3643,-6.3645,0,0,0,0,0,0,0,-6.3489,-6.3504,-6.3667,-6.3591,-6.3585,-6.3549,-6.3553,-6.3656,-6.3622,-6.3563,-6.3552,-6.356,-6.3602,-6.363,-6.3638,-6.3802,-6.3634,-6.3641,-6.3647,-6.365,-6.4118,-6.4125,0,0,0,0,0,0,-6.3492,-6.35,-6.3665,-6.3669,-6.352,-6.3559,-6.3563,-6.3609,-6.3621,-6.3616,-6.3566,-6.3553,-6.3619,-6.3628,-6.364,-6.3859,-6.3643,-6.3651,-6.3656,-6.4111,-6.412,-6.4128,0,0,0,0,0,0,-6.3487,-6.3508,-6.3663,-6.3582,-6.3599,-6.357,-6.3623,-6.3614,-6.3641,-6.3624,-6.3617,-6.3601,-6.3614,-6.3628,-6.3758,-6.3859,-6.3655,-6.3662,-6.4102,-6.4114,-6.4124,-6.4302,0,0,0,0,0,0,-6.3482,-6.3507,-6.3578,-6.3584,-6.3604,-6.3781,-6.3629,-6.362,-6.3657,-6.364,-6.3654,-6.365,-6.361,-6.3746,-6.3766,-6.3867,-6.3669,-6.4093,-6.4107,-6.412,-6.4286,-6.4317,-6.4344,0,0,0,0,0,-6.3474,-6.3626,-6.3583,-6.3603,-6.3692,-6.3787,-6.3798,-6.3749,-6.3666,-6.3736,-6.3725,-6.365,-6.3846,-6.3761,-6.3782,-6.3887,-6.4086,-6.4103,-6.4119,-6.4274,-6.4311,-6.4343,0,0,0,0,0,0,-6.3632,-6.3626,-6.3577,-6.3737,-6.3764,-6.3762,-6.385,-6.379,-6.3841,-6.3824,-6.3761,-6.3765,-6.3907,-6.391,-6.3816,-6.407,-6.3952,-6.3973,-6.4062,-6.4097,-6.4125,-6.412,-6.3676,0,0,0,0,0,-6.3686,-6.3764,-6.3754,-6.3896,-6.3912,-6.388,-6.3919,-6.3879,-6.3904,-6.3915,-6.3913,-6.394,-6.4007,-6.4053,-6.4114,-6.4288,-6.4287,-6.4371,-6.4399,-6.4423,-6.4441,-6.4532,-6.4568,-6.4182,-6.4182,-6.4182,0,0,-6.3797,-6.3803,-6.3856,-6.3928,-6.3944,-6.4025,-6.389,-6.3982,-6.4041,-6.3928,-6.405,-6.4051,-6.4077,-6.423,-6.4297,-6.4237,-6.4548,-6.4444,-6.4463,-6.4468,-6.4552,-6.4589,-6.4621,-6.4193,-6.4191,-6.4189,0,0,-6.404,-6.4054,-6.4172,-6.4192,-6.4218,-6.4196,-6.4225,-6.4234,-6.4229,-6.4351,-6.4268,-6.4338,-6.4457,-6.4478,-6.4505,-6.4759,-6.4691,-6.4781,-6.4929,-6.5018,-6.5048,-6.5075,-6.5163,-6.5196,-6.48,-6.4801,-6.4801,0,-6.4174,-6.4294,-6.4241,-6.4339,-6.4372,-6.4275,-6.4394,-6.4415,-6.4461,-6.4486,-6.4419,-6.4565,-6.4576,-6.4731,-6.4794,-6.482,-6.4849,-6.4777,-6.5049,-6.5075,-6.5099,-6.5182,-6.5216,-6.4811,-6.481,-6.4809,-6.4808,0,-6.4457,-6.4541,-6.4634,-6.468,-6.4725,-6.4833,-6.4796,-6.4847,-6.4805,-6.479,-6.4915,-6.4925,-6.4986,-6.5021,-6.498,-6.5171,-6.5133,-6.5059,-6.4938,-6.5147,-6.5224,-6.5256,-6.4826,-6.4823,-6.482,-6.4817,0,0,-6.4797,-6.4815,-6.4849,-6.4869,-6.4892,-6.4956,-6.5061,-6.5121,-6.5165,-6.5201,-6.5285,-6.5389,-6.532,-6.5351,-6.5312,-6.5391,-6.5589,-6.5306,-6.5306,-6.5356,-6.5798,-6.5851,-6.5889,-6.5546,-6.5551,-6.5556,-6.5794,0,-6.5035,-6.5213,-6.5169,-6.5345,-6.5422,-6.5332,-6.5423,-6.5447,-6.5437,-6.55,-6.5489,-6.5562,-6.5467,-6.5485,-6.5559,-6.5549,-6.5676,-6.5532,-6.5622,-6.5626,-6.5614,-6.5929,-6.5986,-6.621,-6.5824,-6.583,-6.5833,0,-6.5335,-6.5382,-6.5566,-6.5577,-6.5607,-6.5689,-6.5741,-6.5804,-6.5829,-6.5816,-6.5852,-6.5798,-6.59,-6.5782,-6.5922,-6.5825,-6.586,-6.5861,-6.5868,-6.5872,-6.5739,-6.5938,-6.628,-6.6313,-6.5881,-6.5877,-6.5874,0,-6.5561,-6.5671,-6.5795,-6.5815,-6.5832,-6.5891,-6.5901,-6.592,-6.5959,-6.6005,-6.603,-6.6088,-6.6118,-6.6164,-6.6127,-6.6045,-6.6272,-6.6151,-6.6263,-6.6264,-6.6311,-6.6308,-6.666,-6.6341,-6.634,-6.6339,-6.6339,0,-6.5828,-6.5944,-6.5897,-6.5973,-6.61,-6.6049,-6.6176,-6.6175,-6.6194,-6.6267,-6.6195,-6.6266,-6.6214,-6.6281,-6.6253,-6.6372,-6.6388,-6.6379,-6.6369,-6.6383,-6.6384,-6.6402,-6.6385,-6.6348,-6.6346,-6.6345,-6.6343,0,-6.6101,-6.6074,-6.6203,-6.6209,-6.6213,-6.6306,-6.6311,-6.6381,-6.6367,-6.6461,-6.6481,-6.6458,-6.6533,-6.6501,-6.6581,-6.6562,-6.6714,-6.6685,-6.6705,-6.6696,-6.6808,-6.6797,-6.7181,-6.7228,-6.6882,-6.6885,-6.6888,0,-6.6271,-6.6358,-6.6374,-6.6418,-6.6433,-6.6506,-6.6545,-6.65,-6.6544,-6.6581,-6.6647,-6.6716,-6.6768,-6.6892,-6.6882,-6.6943,-6.6913,-6.7044,-6.6921,-6.6932,-6.6911,-6.6905,-6.6913,-6.7067,-6.7071,-6.7074,-6.7077,0,-6.6576,-6.6559,-6.6619,-6.6675,-6.6725,-6.6767,-6.6803,-6.6843,-6.68,-6.6853,-6.6929,-6.697,-6.7051,-6.712,-6.7174,-6.7183,-6.7123,-6.7117,-6.7145,-6.7158,-6.7164,-6.7159,-6.6768,-6.7107,-6.7104,-6.7102,-6.71,-6.7099,-6.68,-6.6872,-6.6894,-6.6964,-6.6987,-6.7022,-6.7088,-6.7083,-6.7145,-6.7207,-6.7178,-6.7265,-6.729,-6.7356,-6.7374,-6.7442,-6.739,-6.7432,-6.7442,-6.7452,-6.7465,-6.7157,-6.7452,-6.7451,-6.745,-6.7449,-6.7449,0,-6.7097,-6.7108,-6.7173,-6.7225,-6.728,-6.7221,-6.7258,-6.7307,-6.7385,-6.7414,-6.7467,-6.7554,-6.7621,-6.7618,-6.768,-6.7734,-6.7708,-6.7752,-6.7745,-6.7748,-6.7509,-6.7477,-6.7772,-6.7772,-6.7772,-6.7772,-6.7772,-6.7772,-6.7258,-6.7377,-6.7364,-6.7493,-6.7503,-6.7588,-6.7614,-6.7646,-6.7668,-6.7769,-6.7824,-6.7822,-6.7838,-6.79,-6.7959,-6.7956,-6.7981,-6.8034,-6.8021,-6.7797,-6.7765,-6.7734,-6.7704,-6.8041,-6.8042,-6.8254,-6.8256,-6.8257]},{"header":{"parameterUnit":"m.s-1","parameterCategory":1,"la1":30.2991,"la2":30.254,"lo1":-89.0895,"lo2":-89.0444,"dy":0.0017,"dx":0.0017,"nx":28,"ny":28,"refTime":"2023-10-24T09:00:00:Z","depth":0,"parameterNumber":3,"parameterNumberName":"V-component_of_WINDS"},"data":[0,0,0,0,0,0,0,0,0,0,0,0,0,0,0,0,0,0,0,0,0,0,0,0,0,0,0,0,0,0,0,0,0,0,0,0,0,0,0,0,0,0,0,0,0,0,0,0,0,0,0,0,0,0,0,0,0,0,1.4036,1.4036,0,1.4072,1.4072,1.4073,1.4063,1.4062,1.4062,1.4061,1.4096,1.4098,1.41,0,0,0,0,0,0,0,0,0,0,0,0,0,1.3958,1.3959,1.4035,1.4036,1.4036,1.4072,1.4072,1.4073,1.4063,1.4062,1.4061,1.4061,1.4096,1.4098,1.41,0,0,0,0,0,0,0,0,0,0,0,0,0,1.3992,1.396,1.4035,1.4036,1.4036,1.4072,1.4072,1.4073,1.4063,1.4062,1.4061,1.406,1.4095,1.4098,1.41,1.4137,0,0,1.4107,1.4108,0,0,0,0,0,0,0,0,1.399,1.3995,1.4035,1.4036,1.4036,1.4062,1.4058,1.4094,1.4064,1.4053,1.4061,1.406,1.4086,1.4089,1.4098,1.4138,1.414,1.4108,1.4109,1.411,1.4111,0,0,0,0,0,0,0,1.3988,1.3994,1.405,1.4036,1.4037,1.4034,1.4038,1.4065,1.4075,1.4054,1.4053,1.4058,1.4086,1.4096,1.4099,1.414,1.4108,1.411,1.4111,1.4112,1.4215,1.4216,0,0,0,0,0,0,1.3985,1.3992,1.4049,1.4051,1.401,1.4037,1.4041,1.4055,1.4075,1.4077,1.4059,1.4057,1.4092,1.4096,1.41,1.4145,1.411,1.4112,1.4114,1.4213,1.4215,1.4216,0,0,0,0,0,0,1.3984,1.3991,1.4047,1.4021,1.4028,1.4039,1.4055,1.4056,1.4066,1.4078,1.408,1.4067,1.4091,1.4096,1.4128,1.4146,1.4113,1.4116,1.4212,1.4214,1.4216,1.4235,0,0,0,0,0,0,1.3981,1.399,1.4004,1.4022,1.403,1.4075,1.4056,1.4058,1.407,1.4069,1.4086,1.4088,1.4091,1.4125,1.4131,1.4149,1.4118,1.421,1.4213,1.4215,1.4233,1.4238,1.4242,0,0,0,0,0,1.3979,1.4007,1.4005,1.4011,1.4047,1.4076,1.408,1.4083,1.4072,1.4086,1.4094,1.4088,1.4144,1.4128,1.4134,1.4154,1.4209,1.4212,1.4215,1.4231,1.4237,1.4242,0,0,0,0,0,0,1.399,1.4009,1.4007,1.4042,1.4057,1.4074,1.4092,1.4089,1.4107,1.4105,1.4107,1.4112,1.4144,1.4152,1.4135,1.4192,1.4175,1.4179,1.4185,1.419,1.4194,1.4192,1.412,0,0,0,0,0,1.3997,1.4018,1.4034,1.4064,1.4072,1.4081,1.4093,1.4094,1.411,1.4117,1.4127,1.4143,1.4164,1.4178,1.4198,1.4235,1.4239,1.4252,1.4256,1.4259,1.4263,1.4284,1.4291,1.4226,1.4226,1.4225,0,0,1.401,1.4024,1.4037,1.4066,1.4078,1.4101,1.4086,1.411,1.4127,1.412,1.4151,1.416,1.4177,1.4212,1.4228,1.422,1.4282,1.4263,1.4265,1.4267,1.4288,1.4294,1.43,1.4228,1.4227,1.4227,0,0,1.4047,1.4059,1.4085,1.4099,1.4118,1.4124,1.4131,1.4149,1.4154,1.4186,1.4181,1.4202,1.4238,1.4251,1.4262,1.4307,1.4302,1.4314,1.4336,1.4357,1.4362,1.4366,1.4383,1.4389,1.4317,1.4317,1.4317,0,1.4061,1.4095,1.4099,1.4125,1.4138,1.4134,1.4162,1.4174,1.4199,1.4208,1.4199,1.4246,1.4257,1.4296,1.4307,1.4316,1.4324,1.4311,1.4361,1.4365,1.437,1.4386,1.4392,1.4319,1.4318,1.4318,1.4318,0,1.4112,1.4136,1.4155,1.4181,1.4197,1.4223,1.4231,1.4247,1.4247,1.4255,1.4287,1.4301,1.4325,1.4335,1.4334,1.4374,1.4368,1.436,1.4343,1.4377,1.4392,1.4398,1.432,1.432,1.432,1.4319,0,0,1.4154,1.4184,1.4191,1.4203,1.4226,1.4244,1.4271,1.4295,1.4309,1.4327,1.4349,1.4381,1.4375,1.4388,1.4389,1.4408,1.4444,1.4398,1.4398,1.4406,1.4489,1.4495,1.4502,1.4441,1.4442,1.4443,1.4488,0,1.4193,1.4241,1.4246,1.4289,1.4312,1.431,1.4333,1.435,1.4358,1.4379,1.4387,1.441,1.4399,1.4408,1.4426,1.4436,1.4461,1.4433,1.4462,1.4463,1.4458,1.451,1.4516,1.4558,1.4494,1.4495,1.4496,0,1.4244,1.4265,1.431,1.4332,1.4341,1.4362,1.4386,1.4406,1.4425,1.443,1.4446,1.4446,1.4474,1.4457,1.4496,1.4477,1.449,1.4497,1.4499,1.4501,1.4481,1.4514,1.4571,1.4577,1.4505,1.4504,1.4503,0,1.4272,1.4311,1.4343,1.4354,1.4379,1.4394,1.4405,1.4424,1.4439,1.446,1.4469,1.4493,1.4506,1.4524,1.4531,1.4518,1.457,1.4553,1.4575,1.4575,1.4586,1.4585,1.4645,1.4594,1.4594,1.4594,1.4594,0,1.4314,1.4342,1.4356,1.4376,1.4408,1.4414,1.4445,1.4456,1.4473,1.4495,1.4494,1.4515,1.4523,1.4545,1.4551,1.4583,1.4589,1.4594,1.4595,1.4594,1.4593,1.4602,1.4599,1.4596,1.4595,1.4595,1.4595,0,1.4349,1.436,1.4396,1.4418,1.4424,1.4446,1.4465,1.4484,1.4493,1.4522,1.4529,1.4543,1.4569,1.4578,1.4609,1.4613,1.4651,1.465,1.4645,1.4645,1.4667,1.4665,1.4734,1.4744,1.4687,1.4687,1.4688,0,1.4376,1.4397,1.4422,1.4438,1.445,1.4474,1.449,1.4498,1.4515,1.454,1.4557,1.4583,1.4605,1.4647,1.466,1.4685,1.4684,1.4707,1.4688,1.4686,1.4685,1.4684,1.4686,1.471,1.4711,1.4711,1.4712,0,1.4421,1.4426,1.4449,1.4475,1.4495,1.4515,1.4535,1.4547,1.4558,1.4577,1.4605,1.4622,1.4656,1.4682,1.4708,1.4719,1.4718,1.4718,1.4725,1.4723,1.472,1.4723,1.4655,1.4716,1.4716,1.4715,1.4715,1.4715,1.4453,1.4473,1.4494,1.4521,1.4537,1.4556,1.4576,1.4588,1.4612,1.464,1.4644,1.4674,1.4695,1.4729,1.4742,1.4766,1.476,1.4769,1.4771,1.4773,1.4775,1.4717,1.4771,1.4771,1.4771,1.477,1.477,0,1.4499,1.4514,1.4538,1.4567,1.4588,1.4586,1.4608,1.4626,1.4653,1.4672,1.4694,1.4727,1.4754,1.477,1.4796,1.4812,1.4812,1.4819,1.4818,1.4821,1.4779,1.4771,1.4819,1.4819,1.4819,1.4819,1.4819,1.4819,1.4526,1.456,1.4568,1.461,1.4624,1.4654,1.4667,1.4685,1.4701,1.4738,1.4761,1.4771,1.479,1.4818,1.4843,1.4847,1.4857,1.4864,1.4868,1.4828,1.4823,1.4819,1.4811,1.4866,1.4867,1.4907,1.4908,1.4908]}]]